Location: A�t �Alizem
(31.2076°N, 8.7872°W)
Time: 05:49:50
(UTC+00:00)

Cosmos 2285 Rocket - Pass Details

Date: 27 November 2020
Orbit: 971 x 998 km, 74.0° (Epoch: 25 January)

Event Time Altitude Azimuth Distance (km) Brightness Sun altitude
Rises 19:08:51 0° 341° (NNW) 3,704 7.1 -20.3°
Reaches altitude 10° 19:11:25 10° 340° (NNW) 2,748 6.4 -20.8°
Maximum altitude 19:17:45 75° 256° (WSW) 1,017 4.2 -22.1°
Drops below altitude 10° 19:24:02 10° 172° (S) 2,716 6.4 -23.4°
Sets 19:26:34 0° 171° (S) 3,657 7.0 -24.0°
